Wetbulb
59.48 59.30 62.08 60.22 49.16 47.14 44.53 46.23 48.35 49.19 50.54 53.76 57.84 55.21 55.61 59.76 57.33 53.20 67.00 68.57 69.35 68.37 70.35 70.48 70.76 70.74 71.85 72.46 72.11 71.72 70.95 70.29 70.67 69.85 69.15 68.58 68.14 67.85 67.01 67.23 68.04 67.78 66.38 67.40 67.56 67.67 66.80 66.24 66.02
57.11 59.13 60.57 56.73 45.34 42.07 42.58 47.51 47.25 50.00 52.45 53.15 54.25 53.81 54.62 56.72 62.67 62.61 63.27 68.50 69.62 68.48 70.24 69.98 69.92 70.80 70.91 72.01 71.99 71.60 71.45 71.26 70.67 69.67 69.10 68.37 67.73 67.18 66.94 67.00 67.65 66.54 66.14 66.40 66.50 67.03 65.88 65.45 65.46
57.73 60.47 54.81 51.43 47.30 42.25 42.59 48.84 49.79 51.62 51.52 51.47 51.18 53.66 57.72 56.34 60.55 61.39 66.25 68.84 69.30 67.31 70.31 69.85 69.83 70.93 70.90 71.03 71.65 71.24 71.42 71.58 71.06 70.21 69.09 68.60 68.02 67.40 67.28 67.54 67.25 66.49 66.15 65.86 66.39 65.77 65.48 64.87 65.63
57.39 58.41 55.93 47.07 46.41 48.27 48.26 49.02 51.09 51.57 52.84 54.04 53.25 52.97 58.01 54.43 55.26 59.04 64.66 68.48 68.24 67.44 68.96 68.82 70.14 70.93 70.83 70.73 70.97 71.40 71.16 71.01 70.90 70.48 69.73 68.53 67.89 68.31 68.19 67.52 67.27 67.39 66.43 66.25 66.79 65.72 65.26 64.26 64.89
58.02 55.87 48.00 46.52 47.65 49.84 49.70 49.54 52.19 51.08 51.57 52.50 53.86 51.92 51.82 50.56 50.78 51.68 59.47 65.74 67.52 67.99 68.91 69.34 69.63 70.45 70.53 70.54 70.58 70.86 71.13 71.19 70.58 70.31 70.11 69.42 68.85 68.54 68.11 67.58 67.32 66.64 65.92 65.89 65.96 65.04 65.25 63.80 63.29
52.82 53.93 45.40 43.68 47.05 50.42 48.48 49.18 51.42 49.89 50.70 50.78 50.69 50.84 50.37 50.10 47.46 48.66 52.47 61.62 66.24 67.83 69.23 69.90 67.28 68.40 69.45 69.87 69.91 70.07 70.55 70.63 70.47 69.86 70.00 69.37 68.80 68.37 68.16 67.67 66.72 66.22 65.75 65.47 65.20 64.79 64.92 63.51 62.41
51.40 49.62 45.86 46.18 46.68 47.91 46.58 48.72 47.71 47.56 47.79 48.63 51.24 46.91 50.59 46.41 46.02 47.19 50.03 53.32 63.44 66.77 67.53 69.10 69.20 68.10 66.05 67.58 67.97 68.86 69.58 69.98 69.86 69.29 69.40 68.48 67.92 67.83 67.58 67.35 67.25 66.91 66.01 65.30 65.41 64.96 64.27 63.21 62.01
53.21 50.71 46.41 46.07 44.95 44.90 46.05 46.40 48.84 47.06 46.39 50.97 51.97 45.86 42.32 42.66 44.73 46.05 47.49 50.60 51.65 62.50 66.47 67.02 68.13 68.82 68.76 67.91 65.01 66.09 67.44 68.14 68.12 67.41 66.95 65.85 65.44 65.69 65.76 64.94 65.95 66.60 64.99 65.67 64.26 65.03 63.64 62.80 62.00
56.38 45.98 42.40 43.39 43.99 43.09 43.84 42.46 45.91 45.00 43.85 41.17 43.41 41.61 41.63 43.17 44.13 43.69 43.96 45.61 47.87 50.96 53.63 62.75 66.99 67.59 68.35 68.21 66.76 63.87 64.98 65.54 65.66 65.41 64.14 63.57 65.46 64.37 63.07 62.86 63.91 65.81 65.05 64.15 64.95 64.90 64.08 62.80 61.57
48.65 43.10 41.54 42.13 40.06 37.63 39.74 37.93 37.48 36.23 36.93 38.25 38.60 40.72 41.90 42.08 41.62 40.79 41.17 41.54 43.43 45.30 47.85 51.62 65.22 66.65 67.72 68.15 67.35 65.39 66.20 66.80 66.80 66.62 66.19 65.65 65.13 63.86 63.44 60.80 61.36 63.48 63.56 63.73 65.26 64.70 63.32 60.73 56.86
44.25 41.20 43.81 39.32 38.47 37.61 37.13 36.63 38.03 35.81 35.26 36.20 35.14 37.28 39.95 41.19 41.58 41.43 40.92 41.08 41.63 43.93 46.45 48.32 52.02 64.30 66.67 67.18 66.89 65.41 65.40 65.88 66.98 66.68 65.96 65.38 65.05 63.73 62.89 60.85 60.39 60.63 59.53 61.11 62.26 61.81 60.51 57.95 55.69
38.63 39.89 40.15 39.08 37.47 37.49 35.57 37.95 36.40 36.69 36.04 38.83 38.01 39.03 40.33 40.35 41.94 42.21 42.46 43.62 45.05 46.20 47.38 47.05 48.22 50.94 63.52 66.08 66.55 66.25 65.18 64.32 66.06 66.44 66.34 65.40 64.55 63.57 63.10 62.20 60.65 60.44 60.42 59.91 59.09 59.35 59.27 57.60 55.74
36.94 36.30 36.82 37.25 37.47 36.13 38.31 36.97 34.67 34.75 36.78 38.76 39.49 40.76 39.59 40.69 41.11 42.15 43.59 44.94 46.28 46.89 49.05 52.53 54.07 56.29 57.11 63.08 65.36 65.94 65.79 64.78 63.94 65.97 66.34 65.94 64.76 63.84 62.96 62.16 62.83 61.87 60.80 60.00 59.37 57.78 58.21 56.30 55.69
37.90 37.58 36.02 36.69 36.98 37.27 35.04 35.22 36.78 35.79 37.69 37.84 39.10 38.56 39.21 40.16 40.34 40.56 42.09 42.86 44.09 46.11 46.82 50.03 51.94 53.04 54.02 53.51 55.39 59.29 65.38 65.77 64.64 63.60 65.64 65.81 65.27 64.75 63.43 62.27 61.72 62.45 61.49 60.18 59.66 57.34 55.92 55.58 55.99
37.40 34.36 36.03 35.04 35.88 35.55 36.35 35.03 34.52 35.22 36.68 37.11 37.33 36.95 38.80 39.93 41.29 39.58 40.83 41.72 43.24 44.15 45.34 46.59 50.06 52.12 51.69 52.11 53.56 54.10 54.23 64.59 64.88 64.39 63.85 65.14 65.32 64.60 64.02 62.64 62.10 62.44 62.27 60.47 58.02 57.45 56.07 55.18 55.59
33.63 33.06 30.07 34.22 34.99 35.68 34.57 30.74 35.65 36.02 33.74 35.01 36.27 34.80 37.46 39.17 40.08 39.47 41.59 41.35 41.84 42.83 43.83 45.25 47.26 47.25 49.22 50.66 51.41 52.74 53.72 55.70 64.18 64.47 64.39 64.75 65.19 65.01 64.11 63.18 62.58 62.67 62.17 60.86 57.93 56.75 55.67 55.04 54.09
32.39 27.18 29.02 31.90 34.94 33.41 32.41 29.45 37.21 37.67 34.47 33.81 34.81 35.82 37.06 37.98 39.14 39.90 40.59 40.15 41.39 41.57 41.87 42.65 44.48 44.35 46.60 48.45 49.48 51.01 52.49 52.18 51.37 50.43 52.52 62.65 64.76 65.20 64.56 63.84 63.81 63.07 62.10 61.17 59.22 58.07 56.82 54.70 54.48
23.63 24.92 29.17 28.73 32.24 31.96 29.87 29.91 34.92 37.32 35.73 33.31 33.75 34.45 35.20 36.64 37.60 39.41 40.96 41.55 41.87 41.51 41.68 42.16 43.07 43.79 45.15 47.62 47.86 48.47 50.59 51.09 52.02 51.77 51.57 51.00 51.61 62.50 64.69 64.03 63.79 63.30 62.28 61.06 59.06 57.63 57.69 56.12 55.45
28.85 27.24 27.87 31.01 33.73 28.25 29.38 30.82 33.53 36.11 34.87 33.19 32.27 34.18 35.08 36.13 38.44 39.96 41.14 40.85 41.10 40.95 40.60 41.28 41.52 41.97 43.14 45.12 44.89 44.42 45.46 47.78 49.64 51.03 50.44 50.52 51.03 51.06 57.46 64.12 63.75 63.35 61.95 60.91 58.93 57.44 56.73 55.90 55.76
28.65 27.27 27.47 30.36 32.57 29.59 28.34 29.00 32.85 35.01 34.95 34.14 33.29 34.01 35.20 35.78 36.70 38.83 39.69 39.33 39.50 39.38 39.95 40.74 41.42 41.82 42.30 43.51 45.95 46.14 45.83 46.98 48.82 49.40 49.77 50.20 51.57 51.55 51.56 50.14 52.32 62.85 62.16 60.61 58.53 57.18 56.38 56.41 56.63
29.22 26.55 24.91 24.40 28.89 30.87 27.70 26.57 29.50 33.54 35.40 34.78 35.93 36.38 36.30 35.76 36.01 36.57 37.54 38.33 38.60 38.52 39.03 41.14 41.43 41.97 42.10 42.64 43.53 45.01 44.92 44.22 45.02 46.53 47.04 48.85 50.46 51.12 51.51 52.13 52.43 52.48 62.39 60.42 58.93 57.97 56.54 54.81 56.21
23.88 29.88 28.38 26.89 23.45 20.21 26.47 19.86 28.92 31.43 31.67 33.77 35.53 35.02 33.59 35.16 36.81 37.02 37.78 37.63 37.76 38.59 39.88 40.82 41.93 42.18 42.81 42.19 41.54 40.90 41.02 40.50 41.74 44.19 46.16 46.99 49.01 50.68 51.99 51.90 52.14 50.49 56.62 61.03 59.59 58.50 56.89 56.12 54.13
27.99 29.69 27.22 25.86 22.36 22.26 22.90 18.28 27.39 31.68 29.92 32.06 33.85 33.97 34.31 35.05 35.61 35.87 36.94 38.49 38.81 39.14 38.60 39.71 40.94 41.78 42.08 41.46 40.89 40.14 39.62 41.17 42.85 43.58 43.99 45.31 47.08 48.98 50.22 51.64 52.53 51.85 51.39 59.69 60.17 58.82 57.46 56.98 55.37
31.74 27.74 27.95 24.54 21.86 14.95 22.64 21.28 23.11 27.53 30.34 30.53 33.05 33.34 34.43 35.12 35.19 36.35 37.68 38.74 38.21 38.34 38.82 39.68 40.54 40.76 41.36 40.80 39.90 39.30 38.90 39.60 39.68 41.04 42.64 43.79 44.67 47.02 49.25 51.22 51.75 52.27 51.74 54.21 60.66 59.39 57.88 56.83 56.27
28.40 24.20 20.85 17.81 16.05 20.58 23.88 20.16 25.00 31.33 32.37 32.30 31.56 32.28 34.60 34.87 34.80 35.43 35.69 36.40 37.38 37.27 37.80 39.16 39.58 39.30 40.21 40.06 39.25 38.85 38.92 39.59 39.58 40.07 41.30 43.02 44.22 45.48 46.43 48.90 50.54 50.91 51.64 52.47 51.74 59.32 58.19 57.31 56.22
23.51 21.14 17.93 12.18 16.18 19.08 22.45 18.55 25.93 33.28 33.10 34.70 34.55 34.40 35.16 34.64 35.02 35.43 36.12 36.15 37.18 37.63 36.94 37.49 38.53 38.89 39.93 39.82 38.84 38.83 38.97 38.99 39.78 40.41 41.24 42.44 43.75 45.03 47.17 48.23 50.01 51.49 51.65 52.55 53.19 57.41 58.54 58.02 57.14
22.23 20.68 23.49 17.29 16.44 14.15 19.86 25.70 31.81 32.68 32.07 31.99 32.47 32.72 33.24 34.05 34.76 35.38 35.93 36.20 36.58 36.39 37.08 36.79 37.95 38.43 39.30 39.15 39.14 39.33 39.56 38.92 38.99 40.25 41.69 42.49 44.94 46.07 46.27 47.73 49.07 50.82 52.40 52.16 53.28 52.67 58.44 58.17 57.58
23.40 26.81 18.82 19.02 9.50 8.55 21.69 23.07 25.23 27.46 30.90 32.43 30.49 31.46 32.96 34.30 34.90 35.19 35.47 35.65 36.47 36.49 36.18 36.54 37.22 37.57 38.49 38.74 38.60 38.67 38.75 38.92 39.27 40.36 41.42 42.73 43.73 44.59 45.86 46.76 48.15 49.07 51.28 52.14 53.24 53.04 53.14 57.98 57.82
20.66 19.62 19.56 18.62 18.65 14.72 14.41 19.23 29.93 28.53 29.85 28.96 29.86 32.29 33.35 33.59 33.99 34.56 34.91 35.92 35.46 35.52 35.26 36.30 36.94 37.11 37.19 37.98 38.72 38.63 38.65 38.96 39.54 39.84 41.73 42.22 43.71 44.27 44.96 45.64 46.43 47.66 50.94 51.98 52.51 52.11 51.80 57.44 57.26
23.28 22.93 23.16 16.50 14.36 17.25 18.47 17.87 32.75 30.38 30.34 30.59 31.06 33.14 33.86 34.04 33.94 33.66 33.78 35.14 35.53 35.44 35.52 35.67 36.30 36.20 36.24 35.64 36.18 36.50 38.38 38.60 38.99 39.73 40.26 40.38 40.05 41.84 42.67 44.13 45.55 48.07 50.17 51.18 51.60 50.88 51.18 56.18 56.67
MSLP
1013.24 1012.04 1010.96 1010.59 1010.72 1009.79 1009.31 1009.95 1009.77 1009.55 1009.85 1010.01 1009.76 1009.88 1010.15 1010.70 1010.88 1012.28 1012.46 1012.25 1012.10 1011.75 1012.50 1013.37 1013.86 1014.00 1014.17 1014.33 1014.58 1014.87 1015.09 1015.17 1015.28 1015.47 1015.64 1015.78 1015.84 1015.91 1015.98 1016.18 1016.37 1016.46 1016.57 1016.65 1016.91 1017.20 1017.53 1017.70 1017.82
1013.32 1012.07 1010.87 1010.35 1010.17 1009.55 1010.14 1010.06 1010.11 1010.01 1010.09 1010.12 1009.87 1009.92 1009.85 1011.86 1011.70 1012.16 1012.28 1012.24 1012.10 1011.66 1012.36 1013.10 1013.84 1014.26 1014.46 1014.57 1014.74 1014.93 1015.13 1015.28 1015.39 1015.57 1015.71 1015.88 1015.99 1016.05 1016.15 1016.24 1016.37 1016.48 1016.60 1016.71 1017.09 1017.39 1017.69 1017.79 1017.89
1013.00 1012.01 1011.59 1010.56 1010.05 1010.09 1010.64 1010.91 1010.94 1010.58 1010.31 1010.20 1010.22 1009.94 1010.85 1012.84 1012.88 1013.25 1013.00 1012.40 1012.04 1011.84 1012.37 1012.90 1013.67 1014.21 1014.54 1014.72 1014.76 1014.97 1015.09 1015.22 1015.37 1015.63 1015.80 1015.95 1016.04 1016.14 1016.25 1016.37 1016.46 1016.57 1016.65 1016.72 1017.04 1017.29 1017.76 1017.90 1017.92
1012.64 1011.51 1011.28 1010.98 1010.40 1010.68 1011.34 1012.11 1012.05 1011.53 1010.77 1010.84 1010.95 1011.57 1013.15 1014.30 1014.30 1014.16 1013.37 1012.68 1012.42 1012.06 1012.07 1012.76 1013.08 1013.65 1014.15 1014.56 1014.82 1014.90 1015.08 1015.23 1015.37 1015.45 1015.71 1016.06 1016.18 1016.30 1016.37 1016.45 1016.58 1016.64 1016.75 1016.88 1017.05 1017.30 1017.73 1017.95 1018.11
1012.60 1011.77 1011.49 1011.11 1010.84 1011.06 1012.14 1012.88 1012.76 1012.50 1012.26 1012.32 1012.23 1012.65 1013.94 1014.90 1015.20 1014.66 1013.77 1013.11 1012.52 1012.32 1012.31 1012.83 1013.09 1013.36 1013.73 1014.08 1014.39 1014.74 1014.93 1015.03 1015.28 1015.44 1015.54 1015.77 1016.10 1016.30 1016.46 1016.62 1016.66 1016.76 1016.88 1016.89 1016.94 1017.25 1017.71 1017.93 1018.12
1012.67 1012.06 1011.99 1011.75 1011.29 1011.76 1013.07 1013.72 1013.45 1013.68 1013.56 1013.65 1013.45 1013.60 1014.57 1015.03 1014.92 1014.92 1014.08 1013.53 1013.07 1012.87 1012.39 1012.84 1013.33 1013.50 1013.67 1013.80 1014.04 1014.34 1014.74 1014.92 1015.02 1015.30 1015.40 1015.58 1015.89 1016.14 1016.28 1016.51 1016.78 1016.89 1017.02 1017.07 1017.03 1017.26 1017.61 1017.91 1018.08
1012.90 1012.54 1012.63 1012.54 1012.58 1012.71 1014.32 1014.61 1014.49 1014.63 1014.48 1014.26 1014.24 1014.43 1014.18 1014.77 1015.35 1015.25 1014.71 1013.90 1013.36 1013.17 1013.21 1013.20 1013.20 1013.46 1013.78 1013.94 1014.08 1013.92 1014.02 1014.54 1014.81 1014.99 1015.24 1015.43 1015.64 1015.98 1016.25 1016.37 1016.52 1016.75 1016.95 1017.06 1017.16 1017.37 1017.56 1017.77 1017.97
1013.16 1013.01 1013.32 1013.38 1013.49 1014.58 1015.36 1015.27 1015.21 1015.35 1015.38 1015.05 1014.53 1015.12 1015.72 1016.09 1015.94 1015.61 1015.18 1014.38 1013.69 1013.52 1013.37 1013.29 1013.60 1013.55 1013.46 1013.71 1013.91 1014.10 1014.00 1013.85 1014.27 1014.75 1014.89 1015.28 1015.56 1015.85 1016.07 1016.32 1016.41 1016.54 1016.62 1016.89 1017.00 1017.32 1017.53 1017.68 1017.79
1013.55 1013.77 1014.04 1014.94 1015.20 1015.84 1016.39 1016.49 1016.16 1016.16 1016.15 1016.10 1016.59 1016.98 1017.11 1016.80 1016.30 1015.84 1015.48 1015.01 1014.53 1013.95 1013.92 1013.56 1013.33 1013.36 1013.42 1013.19 1013.28 1013.54 1013.72 1013.83 1013.81 1014.04 1014.69 1014.93 1015.27 1015.52 1015.85 1016.05 1016.21 1016.34 1016.45 1016.59 1016.83 1017.23 1017.40 1017.55 1017.62
1014.30 1014.56 1015.94 1016.90 1017.43 1017.68 1017.60 1017.66 1017.50 1017.19 1016.93 1016.98 1017.30 1017.11 1017.09 1016.91 1016.75 1016.59 1016.26 1015.86 1015.36 1014.90 1014.35 1013.90 1013.51 1013.37 1013.21 1013.10 1012.63 1012.99 1013.13 1013.38 1013.59 1013.67 1013.84 1014.56 1014.56 1014.92 1015.07 1015.52 1015.88 1016.04 1016.22 1016.41 1016.68 1016.97 1017.26 1017.50 1017.64
1015.81 1016.39 1017.16 1018.04 1018.71 1018.69 1018.59 1018.46 1018.23 1017.84 1017.72 1018.16 1018.35 1018.20 1017.99 1017.75 1017.38 1017.10 1016.93 1016.61 1015.97 1015.45 1014.76 1014.38 1013.92 1013.28 1013.14 1012.91 1012.93 1012.40 1012.50 1012.79 1013.09 1013.21 1013.41 1013.59 1013.91 1014.27 1014.43 1014.85 1015.16 1015.70 1015.98 1016.26 1016.52 1016.76 1017.10 1017.43 1017.53
1017.40 1018.23 1018.27 1018.95 1019.27 1019.27 1019.45 1019.08 1018.53 1018.49 1018.52 1018.53 1018.50 1018.47 1018.28 1018.11 1017.77 1017.45 1017.13 1016.83 1016.39 1015.87 1015.28 1014.60 1014.17 1013.77 1013.07 1012.83 1012.76 1012.64 1012.16 1011.85 1012.20 1012.72 1012.94 1013.08 1013.18 1013.49 1013.78 1013.76 1014.61 1015.08 1015.40 1015.89 1016.04 1016.35 1016.60 1016.92 1017.02
1018.27 1018.86 1019.21 1019.53 1019.61 1019.76 1019.88 1019.41 1019.05 1018.66 1018.60 1018.47 1018.36 1018.31 1018.40 1018.17 1018.05 1017.87 1017.55 1017.33 1016.90 1016.31 1015.55 1015.36 1014.96 1014.69 1014.40 1013.18 1012.70 1012.49 1012.36 1011.49 1011.24 1011.55 1012.16 1012.44 1012.54 1012.86 1013.10 1013.17 1013.28 1014.09 1014.67 1015.02 1015.40 1015.63 1015.85 1016.17 1016.38
1019.49 1019.44 1019.63 1019.65 1019.93 1019.83 1020.07 1019.62 1019.24 1018.55 1018.48 1018.48 1018.34 1018.39 1018.50 1018.20 1018.02 1017.97 1017.78 1017.59 1017.26 1017.01 1016.47 1015.81 1015.13 1015.05 1014.96 1014.72 1014.12 1013.50 1012.17 1011.65 1010.60 1010.68 1010.88 1011.46 1011.97 1012.02 1012.25 1012.50 1012.62 1012.77 1013.55 1014.10 1014.45 1014.83 1015.16 1015.43 1015.63
1019.86 1019.70 1019.67 1019.81 1020.07 1020.18 1020.06 1019.16 1018.64 1018.29 1018.28 1018.43 1018.32 1018.27 1018.33 1018.14 1017.92 1017.79 1017.77 1017.44 1017.27 1017.17 1016.90 1016.51 1015.71 1015.14 1015.20 1015.09 1014.70 1014.14 1013.37 1011.79 1010.93 1010.59 1010.36 1010.34 1010.88 1011.38 1011.40 1011.60 1011.91 1011.86 1012.18 1012.87 1013.51 1013.96 1014.28 1014.82 1015.09
1019.76 1019.84 1019.96 1020.20 1020.53 1020.54 1020.59 1019.18 1018.21 1018.12 1018.27 1018.42 1018.22 1018.07 1018.01 1017.94 1017.76 1017.46 1017.41 1017.32 1017.08 1016.80 1016.76 1016.44 1016.27 1015.73 1015.67 1015.37 1015.01 1014.28 1013.59 1012.87 1011.06 1010.41 1010.21 1009.72 1009.73 1010.33 1010.80 1011.01 1010.87 1011.04 1011.28 1011.57 1012.59 1013.11 1013.76 1014.05 1014.44
1020.09 1020.53 1020.81 1020.76 1020.93 1021.20 1021.12 1019.55 1018.10 1017.77 1018.04 1018.38 1018.12 1018.01 1017.77 1017.58 1017.50 1017.24 1017.10 1017.04 1016.92 1016.51 1016.30 1016.17 1016.04 1015.81 1015.62 1015.56 1015.01 1014.55 1013.86 1013.07 1012.82 1012.77 1012.55 1010.08 1008.94 1008.88 1009.48 1010.08 1010.09 1010.20 1010.54 1010.76 1011.54 1011.94 1012.64 1013.42 1013.77
1021.69 1021.61 1021.60 1021.46 1021.27 1021.24 1021.11 1019.67 1018.67 1017.95 1017.73 1018.21 1018.00 1017.99 1017.73 1017.52 1017.32 1017.02 1016.96 1016.84 1016.60 1016.36 1015.93 1015.79 1015.85 1015.77 1015.35 1015.25 1014.78 1014.76 1014.00 1013.17 1012.50 1012.33 1012.36 1011.57 1011.29 1009.52 1008.26 1008.82 1009.15 1009.39 1009.51 1009.86 1010.15 1010.83 1011.41 1011.96 1012.77
1022.85 1022.99 1022.53 1021.78 1021.98 1021.97 1020.83 1019.64 1018.26 1017.62 1017.39 1017.62 1017.67 1017.64 1017.56 1017.45 1017.21 1016.97 1016.81 1016.65 1016.70 1016.44 1016.10 1016.06 1015.66 1015.50 1015.20 1015.06 1014.83 1014.81 1013.98 1013.16 1012.57 1011.96 1012.07 1011.93 1011.47 1011.16 1010.28 1007.19 1007.88 1008.30 1008.22 1008.64 1009.12 1009.70 1010.24 1011.03 1011.51
1023.82 1023.83 1023.38 1022.68 1022.71 1022.97 1021.22 1019.26 1017.77 1017.08 1016.80 1016.90 1017.19 1017.34 1017.30 1017.19 1017.08 1016.98 1016.75 1016.19 1016.08 1016.22 1015.96 1016.06 1015.90 1015.24 1015.06 1015.04 1014.72 1014.59 1014.08 1013.25 1012.40 1011.42 1010.75 1011.35 1010.94 1011.71 1010.28 1010.08 1009.21 1007.11 1006.53 1007.19 1007.66 1008.33 1009.12 1009.72 1010.22
1024.05 1024.54 1024.96 1025.27 1023.89 1022.49 1021.72 1019.16 1016.99 1016.19 1016.22 1016.46 1016.76 1016.92 1016.84 1016.89 1016.85 1016.80 1016.67 1016.49 1016.04 1015.98 1015.75 1015.75 1015.54 1015.04 1014.81 1014.64 1014.31 1013.96 1013.65 1012.96 1012.28 1011.58 1011.08 1010.31 1010.17 1010.72 1010.21 1009.65 1009.05 1008.55 1005.13 1005.62 1006.26 1006.91 1007.63 1008.26 1008.90
1025.19 1025.36 1025.72 1025.72 1025.34 1023.72 1022.47 1020.03 1017.01 1016.09 1016.11 1016.37 1016.34 1016.32 1016.51 1016.61 1016.58 1016.58 1016.52 1016.33 1016.16 1015.71 1015.58 1015.35 1015.22 1014.85 1014.47 1014.14 1013.83 1013.47 1013.04 1012.49 1012.06 1011.49 1010.77 1010.69 1010.42 1009.43 1008.78 1009.87 1007.93 1008.31 1006.93 1004.11 1004.63 1005.36 1006.48 1007.11 1007.37
1025.66 1025.78 1026.01 1026.04 1025.85 1024.80 1022.72 1021.63 1017.14 1016.05 1016.05 1015.81 1015.65 1015.72 1016.07 1016.19 1016.23 1016.32 1016.17 1015.90 1015.65 1015.38 1015.23 1014.83 1014.64 1014.24 1013.84 1013.73 1013.34 1012.85 1012.43 1012.05 1011.37 1010.92 1010.66 1010.31 1009.23 1008.78 1008.60 1007.72 1007.96 1006.96 1005.90 1004.17 1002.83 1003.84 1004.84 1005.54 1006.01
1026.02 1025.96 1025.73 1026.04 1025.99 1025.13 1022.72 1021.62 1017.50 1016.10 1015.17 1015.06 1015.21 1015.57 1015.96 1016.03 1016.04 1015.96 1015.52 1015.40 1015.25 1014.89 1014.67 1014.53 1014.29 1013.79 1013.39 1013.07 1012.68 1012.26 1011.81 1011.43 1010.88 1010.41 1009.80 1009.16 1008.70 1008.03 1007.54 1007.34 1006.63 1006.07 1004.91 1004.28 1001.86 1002.23 1003.08 1003.92 1004.44
1026.50 1026.36 1026.55 1026.76 1026.27 1024.63 1022.93 1021.92 1017.38 1015.48 1014.97 1015.01 1015.28 1015.62 1015.84 1015.76 1015.69 1015.58 1015.44 1014.97 1014.82 1014.52 1014.38 1014.20 1013.89 1013.31 1012.90 1012.41 1012.02 1011.75 1011.47 1010.99 1010.39 1009.85 1009.34 1008.53 1008.08 1007.75 1007.55 1006.19 1005.08 1004.35 1004.79 1004.19 1004.22 1000.58 1000.96 1002.12 1002.89
1027.32 1027.64 1028.06 1027.99 1027.18 1025.37 1023.46 1021.08 1016.62 1014.98 1014.83 1014.88 1015.09 1015.60 1015.81 1015.81 1015.58 1015.31 1014.87 1014.54 1014.26 1014.04 1014.04 1013.76 1013.36 1012.87 1012.52 1011.93 1011.36 1011.07 1010.83 1010.32 1009.64 1009.05 1008.56 1007.74 1006.97 1006.64 1006.24 1005.40 1004.20 1003.46 1003.14 1002.92 1003.65 1001.14 999.35 1000.30 1001.46
1027.93 1028.13 1028.71 1028.73 1028.10 1026.67 1022.84 1019.49 1016.12 1014.97 1014.89 1014.91 1015.31 1015.75 1015.94 1015.67 1015.24 1015.01 1014.62 1014.17 1013.91 1013.94 1013.64 1013.32 1012.97 1012.73 1012.26 1011.61 1011.13 1010.71 1010.25 1009.56 1008.86 1008.18 1007.66 1006.92 1006.15 1005.40 1005.20 1004.50 1003.72 1003.38 1003.22 1002.31 1002.72 1001.01 998.83 998.68 999.80
1028.77 1028.91 1029.23 1029.39 1029.10 1027.24 1022.89 1019.97 1016.90 1015.55 1015.26 1015.11 1015.44 1015.90 1015.68 1015.34 1015.10 1014.97 1014.63 1014.16 1013.96 1013.61 1013.27 1013.12 1012.97 1012.62 1012.00 1011.40 1010.86 1010.34 1009.80 1009.14 1008.36 1007.66 1006.88 1006.15 1005.37 1004.69 1003.82 1003.04 1003.06 1002.39 1001.83 1002.44 1000.87 999.69 999.34 997.72 998.23
1029.52 1029.46 1029.89 1030.13 1029.35 1028.28 1025.08 1020.08 1015.89 1015.39 1015.24 1015.34 1015.57 1015.68 1015.22 1015.01 1014.87 1014.67 1014.34 1013.96 1013.73 1013.42 1013.30 1013.20 1013.00 1012.57 1011.94 1011.43 1010.70 1010.00 1009.28 1008.61 1007.78 1007.00 1006.19 1005.28 1004.48 1003.69 1003.11 1002.73 1002.65 1001.65 1000.64 999.80 999.04 998.54 997.84 996.88 997.31
1029.38 1029.17 1029.49 1029.85 1029.65 1028.39 1026.58 1020.13 1015.74 1015.16 1015.03 1015.18 1015.33 1015.49 1015.08 1014.81 1014.72 1014.36 1014.02 1013.69 1013.58 1013.44 1013.26 1013.24 1012.92 1012.56 1012.04 1011.77 1011.07 1009.99 1009.00 1008.21 1007.28 1006.33 1005.82 1005.47 1004.58 1003.56 1003.21 1002.32 1001.13 1000.51 999.22 998.18 997.91 997.59 996.39 996.07 996.19
Wind_Speed
18 14 7 3 2 3 2 6 4 4 6 8 4 3 3 16 15 5 2 9 7 2 14 11 9 10 10 9 12 12 12 13 13 12 11 10 10 10 9 9 7 6 6 7 9 10 8 8 8
10 12 4 4 3 3 6 7 9 8 5 5 7 8 7 9 15 6 10 10 7 2 14 12 9 8 8 7 10 12 12 12 13 12 12 10 9 9 9 8 8 8 6 8 7 10 8 7 7
14 9 3 4 3 6 6 12 13 9 2 3 6 6 6 10 14 8 13 10 6 1 11 10 14 10 8 8 8 12 12 12 12 13 11 11 10 10 9 8 9 8 7 8 9 9 7 7 6
6 3 4 2 5 11 11 12 10 9 8 11 8 6 10 18 10 10 17 10 6 3 3 15 17 15 12 10 9 10 13 12 13 13 12 11 11 10 9 7 8 7 9 10 9 8 7 6 6
4 4 3 3 5 5 15 9 8 9 11 13 12 12 9 13 15 18 15 15 9 6 5 9 16 15 14 12 11 11 12 13 13 13 13 12 11 10 9 9 9 8 9 9 9 9 8 6 5
3 1 3 5 4 9 10 11 6 9 10 12 8 11 6 9 20 19 18 11 13 14 2 8 10 11 12 13 12 12 12 14 13 14 14 13 12 11 11 11 9 10 10 9 10 10 9 6 5
3 4 6 8 9 4 6 9 9 7 10 8 9 8 3 22 18 17 16 14 7 7 9 2 7 9 8 9 10 12 12 11 12 14 14 13 12 11 10 10 10 12 11 12 10 9 9 8 7
3 4 7 7 4 6 5 9 8 9 6 11 8 7 8 18 17 14 14 12 10 7 6 3 4 6 9 8 10 10 11 12 12 13 12 10 10 9 9 9 9 11 13 10 12 10 9 9 9
2 2 4 6 6 5 12 9 8 8 6 10 12 12 12 16 16 13 11 11 11 10 8 8 4 5 7 9 11 14 13 11 12 13 12 11 6 7 8 8 9 10 12 15 13 11 10 9 8
3 2 5 7 9 6 9 9 9 6 8 8 15 17 17 15 12 12 13 13 11 13 15 10 6 5 4 9 9 10 10 8 7 9 11 8 10 7 10 10 12 11 10 14 10 11 10 8 4
7 5 6 8 8 6 8 9 7 8 6 7 10 11 11 9 10 10 9 10 10 10 7 13 12 7 5 4 7 4 6 6 6 11 10 11 9 7 7 5 6 5 7 4 6 5 4 5 5
6 7 8 5 5 5 6 8 7 5 5 8 7 8 8 9 10 10 10 10 13 13 11 9 10 10 8 5 5 5 6 7 7 9 11 9 7 8 7 7 6 6 5 6 6 5 6 7 7
8 4 7 2 6 2 9 8 3 3 5 7 6 6 7 8 10 8 10 12 14 15 11 13 13 14 16 10 6 6 7 7 9 9 12 10 9 10 8 8 8 8 7 8 8 6 8 7 8
4 7 4 3 7 2 8 6 7 3 6 7 6 6 7 7 7 7 8 9 11 14 17 17 8 11 14 11 14 12 9 10 6 9 10 15 11 10 9 8 9 8 9 8 9 7 6 6 6
2 1 4 5 5 4 7 5 9 4 3 6 6 5 5 7 7 6 7 7 7 8 11 15 16 12 9 11 12 9 10 13 11 7 10 11 13 12 12 10 9 10 9 11 7 7 6 5 5
1 2 3 3 6 4 6 1 6 3 3 7 7 5 4 6 7 3 5 6 6 6 8 9 10 11 12 10 10 9 8 13 9 9 9 14 14 15 13 11 12 11 10 10 7 6 5 5 6
4 3 5 4 4 2 5 8 7 2 1 6 7 7 6 7 6 6 5 5 6 6 7 7 8 8 6 8 8 10 9 5 6 8 14 14 15 17 15 12 12 14 11 9 10 8 9 5 5
1 3 5 6 2 3 9 19 17 10 6 7 6 6 6 6 7 7 7 6 7 7 6 7 7 8 7 4 5 7 7 6 4 6 10 15 15 21 16 14 14 13 12 11 11 13 10 8 8
4 4 9 5 6 6 6 14 13 8 7 8 4 6 6 7 7 6 6 7 8 8 8 8 8 8 5 3 3 6 8 9 7 4 8 12 11 16 20 13 16 15 15 16 15 13 14 10 8
2 7 7 9 3 7 9 21 18 11 8 6 5 7 7 6 6 6 7 6 6 7 7 8 9 8 6 5 4 4 5 7 8 7 7 8 10 14 15 15 16 17 15 18 17 16 12 11 12
1 3 5 7 11 11 9 10 2 5 8 4 6 9 5 6 7 7 8 8 7 8 8 9 8 9 7 7 5 4 5 6 7 7 8 8 9 12 13 14 14 24 17 15 18 18 19 14 11
2 5 6 10 7 5 3 7 4 7 8 7 9 6 4 6 7 6 8 7 8 8 7 7 9 10 11 8 7 7 8 9 9 9 8 9 11 12 11 16 13 15 16 18 18 16 16 15 15
3 6 6 4 6 7 4 1 8 7 6 9 8 4 5 5 5 7 9 7 8 7 7 7 8 11 11 9 8 8 9 8 8 8 12 12 10 12 14 12 15 16 13 22 20 20 20 17 15
7 6 6 3 3 2 3 1 8 5 6 2 3 3 3 6 6 9 7 8 7 7 7 7 9 9 11 10 9 11 12 12 9 10 11 10 10 9 13 12 13 16 16 19 18 23 24 20 16
4 3 3 5 3 5 6 3 13 7 4 3 2 4 8 7 8 8 8 8 8 8 8 8 10 13 12 13 10 9 11 13 12 11 11 14 11 9 13 15 12 11 14 15 18 21 23 22 18
3 3 2 5 3 4 5 8 9 4 1 6 6 6 7 7 8 9 9 8 11 10 8 9 11 12 13 15 11 8 11 9 10 10 11 11 12 12 15 14 14 13 18 13 19 17 17 20 18
1 2 1 2 2 2 6 8 11 2 4 3 5 3 8 9 9 9 9 8 9 9 11 9 11 14 18 12 10 13 14 14 12 13 13 11 13 11 15 15 15 15 15 16 17 11 16 19 19
2 2 1 1 3 7 7 6 11 6 8 4 3 7 9 7 8 8 9 9 8 9 8 10 13 17 15 14 10 12 15 14 14 13 15 14 15 15 16 15 17 16 16 20 16 10 10 19 17
2 2 1 2 3 4 6 8 4 2 2 3 5 9 9 8 8 8 9 10 8 7 8 11 15 15 14 15 16 16 15 16 15 13 14 16 14 14 16 16 16 17 17 17 15 13 13 19 19
3 2 6 5 5 4 1 15 7 0 2 4 9 9 8 7 8 8 8 9 10 12 11 14 13 14 12 14 17 17 15 16 16 15 15 16 18 17 16 18 16 16 16 18 12 14 12 18 24
Wind_Direction
318 314 297 291 257 215 217 91 26 9 37 346 67 338 321 37 360 64 56 356 26 347 138 155 167 177 186 176 170 167 173 176 176 169 169 171 164 163 152 138 136 124 136 135 103 103 98 95 99
308 306 277 269 260 251 66 58 49 19 79 333 320 356 350 70 16 65 15 354 11 320 136 157 164 181 190 194 179 177 180 191 180 180 178 183 183 183 172 160 138 141 172 152 141 114 110 102 110
281 270 282 322 295 32 97 44 26 347 188 359 358 311 42 345 38 10 353 351 354 110 137 154 159 177 195 205 195 193 191 199 189 188 190 194 198 194 184 181 156 164 171 171 176 144 117 100 115
313 212 242 251 318 55 53 39 4 335 350 29 27 70 85 33 23 360 346 346 354 340 176 148 162 175 186 202 213 209 203 206 204 194 193 200 203 205 200 182 174 181 183 179 169 142 135 115 117
235 261 260 267 288 79 76 37 347 12 356 29 12 356 89 46 16 355 351 349 350 324 101 158 169 176 181 195 206 218 215 214 212 203 196 193 204 203 197 197 183 179 190 193 183 173 151 143 143
276 247 282 263 334 108 64 15 11 17 341 35 11 337 78 38 19 351 342 347 348 351 350 150 174 183 186 193 203 211 225 225 210 212 200 193 201 207 199 197 198 193 196 201 196 192 166 171 176
254 279 269 313 303 27 54 346 38 357 342 16 336 324 307 13 3 348 337 335 337 355 351 143 180 196 200 198 214 208 212 229 221 215 204 196 195 202 212 207 202 207 204 204 204 188 181 190 197
319 242 277 274 310 84 55 353 15 18 334 314 354 357 353 350 347 341 334 328 342 339 337 14 292 219 201 206 216 227 226 212 211 217 198 197 195 202 202 210 220 217 217 224 214 188 199 209 209
284 267 246 30 10 31 18 359 4 354 307 341 22 18 349 347 340 341 339 340 340 343 351 316 276 252 246 223 211 212 220 224 210 198 196 190 193 191 209 206 217 217 223 227 207 192 200 213 217
353 230 60 29 34 6 342 355 358 351 324 11 359 348 355 347 347 345 343 336 334 338 329 335 309 292 247 269 237 207 207 209 214 202 187 201 195 203 196 201 212 210 207 219 193 197 202 211 224
15 43 120 43 35 344 2 2 310 353 16 27 343 342 340 345 350 349 344 330 320 315 322 329 335 307 275 240 283 216 205 202 209 205 199 195 196 205 199 189 194 188 199 192 202 201 196 213 222
110 44 23 37 28 11 356 303 318 340 18 5 331 336 351 344 354 349 349 353 347 335 317 323 321 323 299 275 250 252 259 206 197 211 206 201 199 203 215 183 175 182 181 202 196 196 196 213 220
60 91 75 52 43 353 339 321 333 322 22 338 343 351 0 6 356 359 3 353 350 346 356 0 2 1 358 311 286 263 254 251 215 197 206 208 201 204 203 200 175 183 193 189 208 196 202 201 215
32 58 53 33 28 44 351 302 304 106 24 329 347 359 359 1 355 3 4 357 4 358 354 343 2 4 360 355 360 344 286 256 272 225 202 204 209 206 195 196 198 183 190 201 195 201 191 193 191
208 276 196 84 355 43 324 266 215 79 358 323 336 344 360 337 346 10 349 354 360 353 353 355 353 351 348 343 342 335 352 293 250 236 239 200 205 209 202 197 204 207 188 190 183 196 186 188 192
220 343 319 91 2 51 360 174 145 123 357 325 318 327 338 317 329 355 344 345 352 352 349 343 349 349 345 338 329 326 330 348 274 264 250 230 213 209 213 211 205 204 200 181 192 177 193 186 186
44 328 17 327 98 317 43 282 218 12 247 309 310 320 320 313 321 326 320 331 334 336 334 328 330 332 345 327 326 318 321 349 2 356 350 305 236 215 212 215 214 204 198 199 193 188 186 183 185
45 345 340 301 40 8 288 267 265 269 212 255 291 300 309 325 312 322 320 334 320 312 317 318 316 314 322 331 328 309 307 323 342 340 328 344 334 284 216 218 210 209 202 201 189 194 189 184 183
27 318 280 314 24 347 285 288 275 266 209 238 284 312 315 315 321 332 328 330 327 329 329 326 319 315 327 309 330 318 315 318 305 306 309 325 331 338 323 220 210 211 202 200 197 192 188 193 180
301 291 333 300 79 334 284 286 272 240 228 202 252 285 293 310 325 322 319 321 323 314 332 318 309 311 314 302 250 245 289 296 299 309 333 314 323 308 321 331 325 238 204 199 193 192 195 194 185
310 309 6 294 315 264 290 272 216 191 188 164 238 251 278 309 328 319 328 321 323 321 310 312 313 311 298 287 286 257 267 281 299 305 305 325 305 288 292 298 297 311 212 201 198 195 196 191 187
315 48 332 307 328 297 41 284 240 175 196 217 232 230 297 302 306 313 319 315 319 312 308 309 303 304 309 296 288 279 285 288 287 290 294 296 289 285 291 289 307 289 309 207 205 194 197 192 191
228 14 283 307 291 317 201 294 262 121 201 234 207 175 250 291 304 320 292 307 303 298 294 293 297 300 299 300 294 293 289 276 276 279 280 276 289 289 283 289 285 301 309 257 198 197 201 198 190
292 284 202 215 228 331 124 58 278 187 200 153 180 211 319 307 312 285 285 310 297 305 301 301 299 302 308 297 293 295 292 291 285 282 279 276 282 282 283 271 284 290 308 321 219 199 197 199 193
301 320 319 351 6 234 115 322 248 284 204 187 267 311 282 290 284 304 320 307 305 308 305 307 311 307 306 300 288 287 288 294 284 288 277 278 269 265 273 282 274 285 293 291 281 225 195 196 194
6 28 130 258 299 308 142 236 256 176 335 239 219 259 277 307 323 309 302 312 311 316 307 304 309 309 316 309 299 291 288 286 284 275 277 273 272 267 264 279 286 283 285 286 277 271 196 193 193
20 63 58 310 137 351 241 273 287 304 198 164 202 329 314 297 292 307 310 309 314 314 308 306 326 326 317 308 312 310 303 292 286 288 282 276 274 276 270 265 273 274 260 280 272 293 221 193 189
336 49 112 329 359 290 285 276 248 240 248 176 21 316 287 299 325 319 314 319 314 304 313 339 327 319 312 312 311 307 303 297 292 289 286 282 277 275 277 276 268 272 262 256 259 258 299 209 185
156 166 60 83 157 224 301 254 218 281 352 297 294 275 292 326 329 324 314 309 309 322 331 330 324 314 324 319 320 312 305 301 290 286 285 288 290 292 287 282 277 281 260 262 262 267 306 207 186
352 229 172 139 237 243 281 267 266 216 198 244 265 282 308 325 316 310 313 327 329 331 335 330 322 318 320 334 317 307 306 304 296 296 302 301 294 293 288 280 278 279 269 274 270 281 280 244 193